Wind_Speed
15 15 14 15 15 15 15 15 14 15 14 14 14 14 15 16 17 18 19 20 21 21 22 23 25 25 25 26 27 29 29 29 29 28 29 29 30 31 31 31 32 32 32 33
16 15 15 15 15 15 15 15 15 15 14 15 15 14 14 15 16 17 18 19 20 21 22 24 25 26 26 26 27 27 29 29 29 29 29 30 31 31 31 32 33 34 34 34
16 16 16 16 16 16 15 15 15 15 15 15 14 14 14 15 17 17 19 20 21 21 22 24 25 25 26 26 27 28 29 29 29 29 30 31 31 32 32 34 34 34 34 34
17 16 16 17 17 17 16 15 15 15 16 16 16 17 16 16 17 18 19 20 21 21 22 23 25 26 26 27 27 27 28 30 30 30 31 32 31 32 32 32 33 34 34 34
18 17 17 16 17 17 16 16 16 17 17 18 17 17 16 17 17 18 20 20 20 21 22 23 25 26 26 27 28 28 29 30 30 30 30 30 31 31 31 31 31 32 33 34
19 18 18 17 17 17 17 17 17 18 19 19 17 18 17 17 18 19 20 21 21 22 23 24 25 26 26 27 29 29 30 31 31 31 31 31 31 32 32 32 33 33 33 35
19 19 19 18 18 18 18 17 18 19 20 20 18 19 18 18 19 19 21 22 23 24 24 25 27 27 27 28 29 30 31 32 33 33 33 33 33 34 34 34 35 35 35 36
21 20 19 19 19 19 19 19 20 20 21 21 20 21 20 19 19 20 21 23 24 26 26 27 28 28 28 29 30 30 31 32 33 34 35 35 35 36 36 36 36 37 37 37
22 22 21 21 20 21 21 22 22 23 23 24 24 24 23 22 22 22 23 24 25 27 27 28 29 30 31 31 32 32 33 33 34 34 35 36 36 37 37 38 38 38 38 39
25 25 23 22 22 22 23 23 24 25 25 26 26 25 25 24 24 24 25 26 27 28 29 29 31 32 32 32 33 34 34 35 36 36 36 36 37 38 39 40 40 40 40 41
27 27 26 25 25 24 25 25 26 27 28 29 29 28 27 26 26 27 27 27 29 30 30 31 32 33 34 35 35 35 36 36 36 37 37 37 38 40 41 42 42 42 43 43
29 29 29 28 28 28 28 28 28 29 29 30 31 30 29 28 29 29 30 29 30 31 32 33 34 34 35 35 36 36 37 38 38 39 39 40 40 42 43 44 44 45 45 46
32 32 32 31 31 30 30 30 31 31 32 32 32 32 30 31 32 32 32 32 32 33 34 34 35 35 35 36 37 38 39 40 40 41 42 42 43 43 44 45 46 47 47 48
34 34 34 34 33 33 33 32 33 34 34 34 33 32 31 33 34 34 35 35 35 36 36 37 37 37 37 38 39 39 40 41 42 42 43 44 44 45 46 47 47 48 48 48
37 37 36 36 36 36 36 35 35 36 36 37 35 35 33 35 36 37 37 37 38 38 38 39 39 39 40 40 41 41 42 43 43 44 44 45 46 47 47 48 49 49 49 49
39 40 39 39 38 39 40 39 38 38 39 39 39 38 37 38 39 39 39 40 40 40 40 41 41 42 42 42 43 43 44 45 45 45 45 46 47 48 48 49 50 50 50 50
41 42 42 42 41 43 43 40 40 41 40 40 41 40 40 41 41 41 41 41 42 42 42 42 43 44 44 44 45 45 46 46 46 46 46 47 48 49 50 50 51 51 51 51
42 42 43 44 44 45 43 42 42 43 42 42 42 42 42 43 42 42 42 42 43 43 44 44 45 45 45 46 46 46 46 46 47 47 48 48 49 49 50 51 51 52 52 52
42 42 43 44 45 45 43 42 43 43 43 42 43 43 44 44 44 43 44 44 44 44 45 45 46 46 46 46 47 47 47 47 47 48 49 49 49 50 50 50 51 51 51 50
42 43 43 44 45 45 43 43 43 44 44 43 43 43 44 44 45 45 46 46 46 46 46 46 46 47 46 47 47 47 47 48 48 48 49 49 49 50 50 49 49 49 49 49
42 42 43 43 45 45 44 44 44 44 45 44 45 45 45 45 46 46 46 47 47 47 47 47 47 46 46 46 47 47 48 48 49 49 49 49 49 49 49 48 48 47 47 47
42 42 43 43 45 45 44 44 45 45 45 46 46 46 46 47 47 47 47 47 47 47 47 46 46 46 46 46 47 47 47 48 48 48 48 48 47 47 47 46 46 46 46 46
41 42 43 44 44 44 44 44 45 45 46 46 46 47 47 47 48 48 48 47 47 47 47 47 47 46 46 46 47 47 47 47 47 46 46 46 46 45 45 45 45 45 45 45
41 41 43 43 43 44 44 44 45 45 46 46 46 47 47 47 47 48 48 47 47 47 46 46 47 46 46 46 46 46 45 45 45 44 44 44 44 43 43 43 44 44 43 43
41 41 42 43 43 44 44 45 46 46 46 46 47 47 47 47 47 47 47 46 46 46 46 46 45 45 45 45 45 44 44 44 44 44 44 43 43 43 42 42 42 42 42 42
40 42 44 44 44 45 45 45 45 45 45 46 46 46 46 46 46 45 45 46 46 46 45 45 45 44 44 44 44 44 44 43 43 43 43 42 42 42 42 42 41 41 41 40
Wind_Direction
290 291 290 291 294 296 296 293 288 286 283 277 272 268 266 261 256 255 252 248 247 246 246 247 246 246 245 244 244 244 245 246 249 252 252 255 255 255 257 256 257 258 259 260
288 288 289 289 290 291 292 290 287 285 282 278 275 267 265 258 255 254 250 248 248 248 248 248 248 247 247 247 246 245 245 248 251 253 255 255 256 256 259 258 258 259 260 261
287 287 287 288 287 286 288 289 288 286 280 278 275 270 268 260 257 253 251 250 250 249 247 247 247 246 245 246 246 247 249 250 253 255 256 258 258 258 260 261 260 260 260 260
285 285 286 287 288 287 284 284 285 285 281 278 279 275 272 267 261 256 254 253 251 249 247 246 245 245 245 246 246 248 251 253 256 257 258 259 260 261 261 262 262 260 259 260
284 283 285 286 286 286 283 282 282 283 282 278 279 279 276 272 265 261 258 255 253 251 251 249 247 247 249 249 250 253 255 256 258 259 259 260 261 263 263 264 264 260 259 261
282 282 283 284 284 283 282 281 281 281 282 280 281 280 277 275 271 265 260 257 254 254 254 253 252 252 255 255 254 257 259 259 260 262 262 262 263 263 265 266 266 264 262 262
280 280 281 281 281 280 279 279 280 282 282 281 281 279 279 277 275 269 264 260 257 257 256 257 256 257 258 259 260 261 260 262 263 264 264 264 264 265 266 268 269 268 267 267
280 281 281 280 280 279 277 277 279 282 284 282 281 281 281 280 276 272 268 263 260 258 257 258 259 260 261 261 263 264 264 264 265 265 265 266 265 266 266 268 269 270 269 270
279 280 281 281 279 278 277 276 278 280 282 283 281 280 280 280 277 274 271 266 262 260 260 260 261 263 264 265 265 265 266 267 268 266 267 266 267 267 267 267 269 270 270 271
276 277 278 280 279 279 279 279 279 278 280 282 281 283 284 282 279 278 274 269 265 263 263 263 263 265 267 266 267 267 267 267 268 268 268 270 268 267 267 268 270 271 271 272
273 275 276 278 279 280 280 278 277 277 277 280 281 282 285 284 281 278 275 273 270 266 265 264 264 266 267 267 267 268 269 268 270 270 270 271 270 268 268 269 270 271 272 273
272 273 274 276 277 278 278 277 276 276 276 277 280 281 282 282 280 278 275 273 271 269 268 268 268 269 269 269 269 268 270 270 271 271 270 271 271 270 269 269 270 272 272 273
271 272 273 275 276 276 276 277 276 275 275 276 277 280 281 280 278 277 275 273 271 270 270 269 269 270 271 271 270 270 271 272 272 272 271 271 271 271 272 272 272 273 273 274
270 271 272 274 275 276 276 276 276 275 275 276 277 278 277 276 276 275 274 272 271 271 270 269 270 270 270 271 271 272 273 274 274 274 272 272 272 272 273 274 275 275 274 274
269 271 272 272 273 275 274 274 275 275 276 276 277 276 275 274 274 274 273 271 271 271 270 269 270 270 270 271 272 272 273 274 275 274 274 273 273 273 274 274 274 275 275 276
269 271 272 272 272 273 273 272 273 274 275 276 276 275 274 273 273 273 272 272 272 272 271 270 270 270 271 272 273 273 274 275 275 275 274 274 274 274 274 274 274 275 275 276
269 271 272 272 272 272 272 273 273 273 274 275 275 274 273 272 273 273 273 272 272 272 272 271 270 271 271 272 273 274 274 275 274 274 274 274 274 275 275 275 275 275 276 276
270 271 272 273 273 273 276 274 274 274 275 275 276 274 273 274 274 273 273 273 273 274 274 272 271 271 271 272 273 273 274 275 275 275 275 275 275 275 276 275 276 276 276 276
269 271 272 273 274 275 275 275 275 276 275 275 275 275 274 274 273 273 273 273 274 274 274 272 272 272 272 272 272 273 274 275 275 276 276 275 275 276 276 276 276 277 276 276
269 270 272 273 274 275 277 276 276 276 276 275 275 275 275 274 273 273 274 273 273 274 273 272 272 272 272 273 273 274 275 276 276 276 276 276 276 276 276 277 277 276 276 277
270 271 272 273 274 275 276 277 277 276 277 276 275 275 274 274 274 275 274 274 274 274 273 272 272 272 273 274 274 275 277 277 277 277 277 276 277 276 276 277 277 277 277 277
270 271 272 272 272 274 275 275 275 276 276 276 275 275 275 276 276 275 275 275 275 274 273 272 272 272 273 274 275 276 277 278 277 277 277 277 277 277 276 276 276 277 277 277
269 270 271 271 272 273 273 274 275 275 276 277 277 276 276 276 277 276 276 276 275 275 274 272 272 273 274 275 276 277 278 278 277 277 277 277 277 276 276 276 276 276 277 278
267 267 269 270 270 271 272 272 274 276 277 277 277 277 276 277 277 277 276 276 275 275 275 274 273 273 274 274 276 277 277 278 278 278 277 277 276 275 275 275 275 276 277 278
266 268 269 269 270 270 271 273 274 275 276 277 277 278 278 278 278 277 277 276 275 275 275 275 274 273 274 274 274 276 276 276 277 277 276 276 275 275 274 274 276 277 277 278
267 268 269 270 270 271 272 273 274 275 276 277 277 278 278 278 278 278 277 277 276 275 275 274 273 273 274 273 273 274 275 275 276 277 276 276 275 275 274 275 276 277 277 277
Height
5725 5725 5724 5723 5722 5721 5719 5718 5717 5717 5716 5716 5716 5716 5716 5717 5718 5719 5720 5722 5724 5727 5729 5731 5734 5737 5739 5742 5744 5747 5750 5752 5755 5756 5758 5760 5762 5763 5765 5767 5768 5769 5771 5772
5723 5722 5721 5719 5718 5718 5717 5716 5715 5715 5714 5713 5713 5714 5714 5714 5715 5716 5717 5719 5721 5723 5725 5727 5729 5732 5734 5737 5739 5742 5744 5747 5749 5751 5752 5754 5756 5757 5759 5760 5761 5762 5764 5765
5719 5719 5717 5716 5715 5715 5714 5713 5712 5712 5711 5711 5711 5711 5712 5712 5712 5713 5715 5716 5718 5720 5722 5723 5725 5728 5730 5732 5734 5737 5739 5741 5743 5745 5746 5748 5749 5750 5752 5752 5753 5754 5756 5757
5715 5715 5714 5713 5712 5711 5711 5710 5710 5709 5709 5708 5709 5708 5709 5709 5709 5711 5712 5713 5714 5716 5718 5719 5721 5724 5726 5728 5729 5731 5733 5735 5737 5739 5740 5741 5742 5743 5744 5745 5745 5747 5748 5749
5711 5711 5710 5710 5709 5708 5708 5707 5707 5706 5706 5706 5706 5705 5707 5706 5706 5707 5708 5710 5711 5712 5714 5716 5718 5720 5722 5723 5725 5726 5728 5729 5731 5732 5733 5734 5735 5736 5737 5737 5738 5739 5740 5741
5707 5707 5706 5706 5705 5704 5704 5704 5704 5703 5702 5703 5703 5702 5703 5703 5703 5704 5705 5706 5707 5709 5710 5712 5713 5715 5717 5718 5720 5721 5722 5722 5723 5725 5726 5727 5728 5729 5729 5730 5730 5730 5731 5732
5703 5703 5702 5702 5701 5701 5701 5701 5700 5699 5698 5699 5700 5699 5700 5700 5700 5700 5700 5701 5703 5704 5706 5707 5709 5710 5712 5713 5714 5715 5715 5716 5717 5718 5718 5719 5720 5721 5721 5722 5722 5722 5722 5723
5697 5698 5698 5697 5697 5697 5696 5697 5697 5696 5695 5695 5695 5695 5697 5696 5695 5695 5696 5697 5698 5699 5701 5702 5703 5704 5705 5706 5707 5708 5708 5709 5710 5710 5711 5711 5712 5712 5712 5712 5713 5713 5713 5713
5692 5692 5692 5692 5691 5692 5692 5692 5692 5691 5690 5690 5690 5691 5691 5691 5691 5691 5691 5692 5693 5694 5695 5696 5697 5697 5698 5699 5699 5700 5701 5701 5701 5702 5702 5702 5703 5703 5703 5703 5703 5703 5703 5703
5686 5686 5687 5687 5686 5686 5686 5686 5686 5685 5685 5684 5685 5685 5686 5686 5686 5686 5686 5686 5687 5687 5688 5689 5689 5690 5690 5691 5691 5691 5692 5692 5692 5692 5692 5692 5692 5693 5693 5693 5693 5693 5693 5692
5680 5680 5681 5681 5681 5680 5681 5680 5679 5679 5679 5679 5678 5682 5680 5679 5679 5680 5680 5679 5680 5681 5681 5681 5682 5682 5682 5682 5682 5683 5682 5682 5683 5682 5682 5682 5682 5682 5682 5682 5682 5682 5681 5681
5673 5673 5673 5674 5674 5673 5673 5673 5673 5673 5673 5672 5671 5676 5673 5673 5672 5672 5672 5672 5672 5673 5673 5673 5674 5673 5673 5673 5673 5673 5673 5673 5673 5672 5672 5672 5672 5671 5671 5671 5671 5670 5670 5669
5664 5665 5666 5666 5668 5667 5666 5666 5665 5665 5664 5664 5664 5668 5665 5664 5663 5663 5663 5663 5664 5664 5664 5664 5664 5664 5664 5664 5663 5663 5663 5663 5662 5662 5662 5661 5661 5660 5660 5660 5659 5658 5658 5657
5655 5656 5658 5658 5657 5657 5657 5658 5657 5655 5655 5655 5656 5657 5657 5655 5654 5654 5654 5654 5654 5654 5654 5654 5654 5654 5654 5653 5653 5653 5652 5652 5651 5650 5650 5649 5649 5648 5648 5647 5646 5646 5645 5644
5645 5646 5647 5647 5647 5647 5647 5648 5647 5646 5646 5646 5647 5647 5648 5646 5645 5644 5644 5644 5644 5644 5644 5644 5644 5643 5643 5642 5642 5641 5641 5640 5639 5638 5638 5637 5636 5636 5635 5634 5633 5632 5631 5630
5634 5635 5636 5637 5637 5636 5637 5638 5637 5637 5637 5636 5636 5637 5638 5635 5634 5634 5634 5634 5634 5633 5633 5632 5632 5631 5631 5630 5630 5629 5628 5627 5626 5626 5625 5624 5623 5622 5622 5621 5619 5619 5618 5616
5624 5624 5624 5625 5625 5624 5626 5630 5628 5627 5627 5626 5625 5627 5625 5624 5624 5624 5623 5623 5622 5622 5621 5620 5619 5619 5618 5618 5617 5616 5615 5614 5613 5612 5611 5610 5610 5609 5608 5607 5606 5605 5604 5602
5613 5612 5612 5612 5613 5612 5619 5616 5616 5615 5615 5614 5613 5613 5613 5612 5612 5611 5610 5610 5609 5609 5608 5607 5606 5606 5605 5604 5604 5603 5602 5601 5600 5599 5598 5596 5595 5595 5594 5592 5591 5590 5589 5588
5601 5601 5600 5600 5599 5600 5605 5604 5603 5602 5603 5603 5601 5600 5600 5599 5599 5599 5598 5597 5596 5595 5595 5594 5593 5592 5591 5591 5590 5589 5588 5587 5586 5585 5583 5582 5581 5580 5579 5578 5577 5576 5574 5573
5590 5589 5589 5588 5587 5588 5593 5592 5590 5590 5589 5590 5588 5588 5587 5586 5586 5587 5585 5584 5583 5582 5581 5580 5579 5579 5578 5577 5576 5575 5574 5573 5572 5570 5569 5568 5567 5566 5564 5563 5562 5561 5560 5559
5578 5577 5577 5576 5574 5575 5579 5578 5577 5578 5578 5576 5575 5574 5573 5573 5572 5572 5571 5570 5569 5568 5567 5566 5565 5565 5564 5563 5562 5561 5560 5559 5557 5556 5554 5553 5552 5551 5550 5549 5548 5547 5546 5545
5565 5565 5565 5564 5563 5567 5566 5565 5565 5564 5563 5562 5561 5561 5560 5559 5558 5558 5557 5556 5555 5554 5553 5552 5551 5551 5550 5549 5548 5547 5546 5545 5543 5542 5540 5539 5538 5536 5535 5535 5534 5533 5532 5531
5553 5554 5552 5553 5554 5553 5552 5551 5551 5550 5550 5549 5548 5548 5547 5546 5545 5544 5543 5542 5541 5540 5539 5538 5537 5537 5536 5535 5534 5533 5532 5530 5529 5528 5526 5525 5524 5523 5522 5521 5520 5519 5518 5517
5541 5540 5539 5539 5541 5540 5539 5538 5538 5537 5537 5536 5535 5534 5533 5532 5531 5530 5529 5528 5527 5526 5525 5524 5523 5523 5522 5521 5520 5519 5518 5516 5515 5514 5513 5511 5510 5509 5509 5508 5507 5506 5505 5504
5529 5528 5526 5526 5527 5527 5527 5526 5525 5524 5523 5523 5522 5520 5519 5518 5517 5515 5514 5513 5512 5511 5511 5510 5509 5508 5508 5507 5506 5505 5504 5503 5502 5501 5499 5498 5497 5496 5496 5495 5494 5493 5492 5491
5516 5515 5514 5514 5515 5514 5514 5513 5512 5511 5511 5510 5508 5507 5506 5504 5503 5501 5500 5499 5498 5497 5496 5496 5495 5495 5494 5493 5493 5492 5490 5489 5488 5487 5486 5485 5484 5483 5483 5482 5482 5481 5480 5479